Location: Ariel
(45.9570°N, 122.5700°W)
Time: 01:22:25
(UTC-07:00)

Transit 4A - Pass Details

Date: 21 July 2019
Orbit: 863 x 981 km, 66.8° (Epoch: 18 August)

Event Time Altitude Azimuth Distance (km) Brightness Sun altitude
Rises 04:31:53 0° 254° (WSW) 3,664 - -10.2°
Exits shadow 04:33:43 - 261° (W) 3,077 10.1 -10.0°
Reaches altitude 10° 04:34:53 10° 267° (W) 2,728 9.9 -9.9°
Maximum altitude 04:40:11 26° 323° (NW) 1,814 9.5 -9.2°
Drops below altitude 10° 04:45:30 10° 19° (NNE) 2,739 11.4 -8.5°
Sets 04:48:33 0° 31° (NNE) 3,682 12.7 -8.1°
